Regional Weather Roundup
Issued by NWS Charleston, SC

Current Version | Previous Version | Graphics & Text | Print | Product List | Glossary On
Versions: 1 2 3 4 5 6 7 8 9 10 11 12 13 14 15 16 17 18 19 20 21 22 23 24 25 26 27 28 29 30 31 32 33 34 35 36 37 38 39 40 41 42 43 44 45 46 47 48 49 50
000
ASUS42 KCHS 132228
RWRCHS

REGIONAL WEATHER ROUNDUP
NATIONAL WEATHER SERVICE CHARLESTON SC
500 PM EST SAT FEB 13 2016

NOTE: "FAIR" INDICATES FEW OR NO CLOUDS BELOW 12,000 FEET WITH NO
SIGNIFICANT WEATHER AND/OR OBSTRUCTIONS TO VISIBILITY.

NOT ALL STATIONS ARE QUALITY CONTROLLED BY THE NATIONAL
WEATHER SERVICE. USE DATA WITH CAUTION...ESPECIALLY
DEWPOINT OBSERVATIONS.

SCZ027-030-031-034>040-042>050-132300-
...SOUTHEAST SOUTH CAROLINA...

CITY           SKY/WX    TMP DP  RH WIND       PRES   REMARKS
N CHARLESTON   SUNNY     49  17  28 N8        30.26R
WATERFRONT PRK   N/A     48  26  42 N10       30.11R
MOUNT PLEASANT FAIR      46  18  31 NW8       30.28R
JOHNS ISLAND   FAIR      48  21  34 N5        30.27R
PINOPOLIS        N/A     48  19  32 N7        30.20R
MONCKS CORNER  FAIR      45  10  24 N6        30.28R
SUMMERVILLE    FAIR      48  21  34 N6        30.29R
BEAUFORT MCAS  SUNNY     51  22  31 NW10      30.27R
BEAUFORT ARPT  FAIR      50  23  34 N8        30.27R HAZE
HILTON HEAD IS SUNNY     52  28  40 N12       30.27R
WALTERBORO     CLEAR     50  18  27 N6        30.29R
ALLENDALE      FAIR      50  18  27 CALM      30.27R

...SOUTHERN MIDLANDS AND PEE DEE...

CITY           SKY/WX    TMP DP  RH WIND       PRES   REMARKS
GEORGETOWN     FAIR      43  18  36 NW9       30.29R
KINGSTREE      FAIR      43  14  31 N5        30.29R
ORANGEBURG     SUNNY     48   3  15 N9        30.28R
BARNWELL       FAIR      48  23  37 N3        30.28R
AIKEN          FAIR      45  18  33 N6        30.30R
MANNING        FAIR      45  14  29 N7        30.28R
COLUMBIA       SUNNY     47   2  15 N8        30.29R
SUMTER         SUNNY     45  12  26 N10       30.25R
FLORENCE       SUNNY     42  10  27 NW12      30.28R
MYRTLE BEACH   SUNNY     45  12  26 N10G18    30.29R
N MYRTLE BEACH SUNNY     43  13  29 N8        30.28R

$$

GAZ063-065-086>088-099>101-113>116-118-119-134>141-150-132300-
...SOUTHEAST GEORGIA...

CITY           SKY/WX    TMP DP  RH WIND       PRES   REMARKS
SAVANNAH ARPT  SUNNY     53  19  26 NW10      30.27R
HUNTER AAF     SUNNY     53  21  29 N10       30.24R
FORT STEWART   SUNNY     54  18  24 NW8       30.24R
STATESBORO     SUNNY     55   5  13 N7        30.27R
SYLVANIA       CLEAR     52  24  33 NW8       30.28R
CLAXTON        FAIR      53  23  31 W7        30.27R

...CSRA...CENTRAL AND FAR SOUTHEAST GEORGIA...

CITY           SKY/WX    TMP DP  RH WIND       PRES   REMARKS
THOMSON        SUNNY     49  16  26 W12       30.33R
AUGUSTA-BUSH   SUNNY     50  12  21 W9        30.27R
AUGUSTA-DANIEL SUNNY     50  12  21 N8        30.27R
SWAINSBORO     FAIR      52  14  22 NW8       30.28R
VIDALIA        SUNNY     52  16  24 NW6       30.28R
EASTMAN        FAIR      51   7  17 N7        30.33R
HAZLEHURST     FAIR      54  14  20 N12       30.27R
ALMA           SUNNY     53  14  21 NW9G18    30.27R
WAYCROSS       SUNNY     56  22  26 NW10      30.28R
JESUP          FAIR      57  21  24 NW7       30.26R
BAXLEY         FAIR      54  14  20 NW10      30.27R
BRUNSWICK      SUNNY     55  23  28 NW8       30.27R
SAINT SIMONS   SUNNY     49  34  56 E8        30.25S

$$

SCZ027-028-034-036>038-045-046-048>050-GAZ119-141-132300-
...LAKE AND SUPPLEMENTAL COASTAL OBSERVATIONS...

STATION/POSITION TIME  TEMP    WIND        PRES    WAVE   SWELL
                       AIR SEA DIR/SP/G            HT/PER HT/PER/DIR
                 (UTC) (F)     (DEG/KT/KT) (MB)    (FT/S) (FT/S/D)
WINYAH BAY       2100   44     360/  9     1023.0S
LAKE MURRAY      2100   45     360/  4/ 10 1024.4S
ACE BASIN NERRS  2100   51     340/  4     1024.0S
FORT PULASKI     2200   50 50              1025.0R
SAPELO ISLAND    2100   56      60/  4     1024.0S

$$

ANZ835-935-AMZ111-154-330-350-352-354-370-450-454-472-132300-
...C-MAN AND BUOY OBSERVATIONS...

STATION/POSITION TIME  TEMP    WIND        PRES    WAVE   SWELL
                       AIR SEA DIR/SP/G            HT/PER HT/PER/DIR
                 (UTC) (F)     (DEG/KT/KT) (MB)    (FT/S) (FT/S/D)
BUOY 41004       2150   45 66   10/  8/ 14 1025.0R   4/ 6   3/ 6
BUOY 41008       2150   47 53   80/  8/ 10 1025.0R   2/ 6   2/ 60/ 6
FOLLY BEACH CMAN 2200   47      20/  9/ 12 1025.0R
CAPERS NEARSHORE 2108   44      90/  4/  8 1024.7R
FRIPP NEARSHORE  2100   50     340/  8/  8 1023.7S


STATION/POSITION TIME  TEMP    WIND        PRES    WAVE   SWELL
                       AIR SEA DIR/SP/G            HT/PER HT/PER/DIR
                 (UTC) (F)     (DEG/KT/KT) (MB)    (FT/S) (FT/S/D)
5E ST. MARYS GA  2121      56                N/A     2/ 5
FRYING PAN BUOY  2200   42 61  330/ 14/ 17 1025.3R
BUOY 41025       2150   35 72  320/ 16/ 21 1024.4R   5/ 8   3/ 40/ 8
CAPE LOOKOUT NC  NOT AVBL
BUOY 41002       2150   52 68  330/ 21/ 27   N/A    10/ 9   5/270/ 9
BUOY 41010       2120   63 72              1021.8R
ST AUGUSTINE FL  2200   51 58   20/ 11/ 12 1025.0R


$$



USA.gov is the U.S. government's official web portal to all federal, state and local government web resources and services.